This is the latest recevied weather packets stored in our database for station/object IU1OPQ-3. If no packets are shown the sender has not sent any weather packets the latest 10 day(s).
| Time | Temp. | Humidity | Pressure | Rain* | Wind** | Luminosity | Snow |
|---|---|---|---|---|---|---|---|
| 1777560301 | 13.89° C | 63% | 1022.3 hPa | 0 mm | - | - | - |
| 1777559401 | 13.89° C | 63% | 1022.5 hPa | 0 mm | - | - | - |
| 1777558501 | 13.89° C | 62% | 1022.7 hPa | 0 mm | - | - | - |
| 1777557601 | 13.33° C | 64% | 1022.8 hPa | 0 mm | - | - | - |
| 1777556701 | 13.33° C | 65% | 1023 hPa | 0 mm | - | - | - |
| 1777555801 | 12.78° C | 68% | 1022.8 hPa | 0 mm | - | - | - |
| 1777554901 | 12.22° C | 68% | 1022.9 hPa | 0 mm | - | - | - |
| 1777554001 | 12.22° C | 70% | 1023.3 hPa | 0 mm | - | - | - |
| 1777553101 | 11.67° C | 72% | 1023.4 hPa | 0 mm | - | - | - |
| 1777552201 | 11.67° C | 73% | 1023.3 hPa | 0 mm | - | - | - |
| 1777551301 | 11.67° C | 73% | 1023.5 hPa | 0 mm | - | - | - |
| 1777550401 | 11.11° C | 74% | 1023.7 hPa | 0 mm | - | - | - |
| 1777549501 | 11.11° C | 75% | 1023.5 hPa | 0 mm | - | - | - |
| 1777548601 | 11.67° C | 75% | 1023.6 hPa | 0 mm | - | - | - |
| 1777547701 | 11.11° C | 74% | 1023.4 hPa | 0 mm | - | - | - |
| 1777546801 | 11.67° C | 75% | 1023.6 hPa | 0 mm | - | - | - |
| 1777545901 | 10.56° C | 76% | 1023.3 hPa | 0 mm | - | - | - |
| 1777545001 | 11.11° C | 77% | 1023.5 hPa | 0 mm | - | - | - |
| 1777544101 | 10.56° C | 77% | 1023.2 hPa | 0 mm | - | - | - |
| 1777543201 | 10.56° C | 78% | 1023.4 hPa | 0 mm | - | - | - |
| 1777542301 | 10.56° C | 79% | 1023.2 hPa | 0 mm | - | - | - |
| 1777541401 | 10.56° C | 79% | 1023.1 hPa | 0 mm | - | - | - |
| 1777540501 | 10° C | 79% | 1023.4 hPa | 0 mm | - | - | - |
| 1777539601 | 10° C | 80% | 1023 hPa | 0 mm | - | - | - |
| 1777538701 | 10° C | 81% | 1023 hPa | 0 mm | - | - | - |
* Rain latest hour (hover to see other rain measurements)
** Current wind speed in m/s (hover to see current wind gust speed)